GW3513 Weather Reports


Display with metric or nautical units.
time (UTC)temp
F
wind
direction
speed
MPH
gust
MPH
rain 1hr
in
rain 24hr
in
rain mn
in
humidity
%
barometer
mb
20260506211123 81 161 0.0 0.0 0.00 0.00 0.00 31 1018.4
20260506210620 81 161 0.0 0.0 0.00 0.00 0.00 29 1018.7
20260506210117 82 161 0.0 0.0 0.00 0.00 0.00 28 1018.7
20260506205614 81 161 0.0 0.0 0.00 0.00 0.00 29 1018.7
20260506205108 85 161 0.0 0.0 0.00 0.00 0.00 29 1018.6
20260506204607 81 161 0.0 0.0 0.00 0.00 0.00 30 1018.9
20260506204103 81 161 0.0 0.0 0.00 0.00 0.00 29 1018.9
20260506203602 83 161 0.0 0.0 0.00 0.00 0.00 27 1018.6
20260506203058 82 160 0.0 0.0 0.00 0.00 0.00 30 1018.5
20260506202556 81 161 0.0 0.0 0.00 0.00 0.00 32 1018.9
20260506202052 81 160 0.0 0.0 0.00 0.00 0.00 32 1018.9
20260506201549 81 160 0.0 0.0 0.00 0.00 0.00 33 1019.0
20260506201046 81 160 0.0 0.0 0.00 0.00 0.00 31 1019.0
20260506200542 84 160 0.0 0.0 0.00 0.00 0.00 29 1019.0
20260506200039 85 160 0.0 0.0 0.00 0.00 0.00 25 1019.3
20260506195536 83 160 0.0 0.0 0.00 0.00 0.00 32 1019.2
20260506195032 81 160 0.0 0.0 0.00 0.00 0.00 31 1019.4
20260506194530 79 160 0.0 0.0 0.00 0.00 0.00 31 1019.4
20260506194026 79 160 0.0 0.0 0.00 0.00 0.00 35 1019.4
20260506193523 79 160 0.0 0.0 0.00 0.00 0.00 32 1019.6
20260506193021 79 160 0.0 0.0 0.00 0.00 0.00 30 1019.3
20260506192517 82 160 0.0 0.0 0.00 0.00 0.00 31 1019.5
20260506192013 81 160 0.0 0.0 0.00 0.00 0.00 32 1019.6
20260506191510 81 160 0.0 0.0 0.00 0.00 0.00 36 1019.8
20260506191006 79 160 0.0 0.0 0.00 0.00 0.00 31 1019.8
20260506190503 77 160 0.0 0.0 0.00 0.00 0.00 33 1019.8
20260506190000 79 160 0.0 0.0 0.00 0.00 0.00 38 1019.8
20260506185458 79 160 0.0 0.0 0.00 0.00 0.00 35 1020.0
20260506184954 77 160 0.0 0.0 0.00 0.00 0.00 34 1020.1
20260506184451 75 160 0.0 0.0 0.00 0.00 0.00 36 1020.1
20260506183948 73 161 0.0 0.0 0.00 0.00 0.00 41 1020.4
20260506183444 72 160 0.0 0.0 0.00 0.00 0.00 40 1020.3
20260506182941 70 160 0.0 0.0 0.00 0.00 0.00 42 1020.4
20260506182438 70 160 0.0 0.0 0.00 0.00 0.00 42 1020.6
20260506181935 69 160 0.0 0.0 0.00 0.00 0.00 42 1020.8
20260506181434 68 160 0.0 0.0 0.00 0.00 0.00 46 1020.8
20260506180930 68 160 0.0 0.0 0.00 0.00 0.00 48 1020.9
20260506180426 68 160 0.0 0.0 0.00 0.00 0.00 44 1020.6
20260506175923 68 160 0.0 0.0 0.00 0.00 0.00 44 1020.5
20260506175420 65 160 0.0 0.0 0.00 0.00 0.00 51 1020.6
20260506174917 69 160 0.0 0.0 0.00 0.00 0.00 43 1020.6
20260506174414 67 160 0.0 0.0 0.00 0.00 0.00 52 1020.5
20260506173911 66 160 0.0 0.0 0.00 0.00 0.00 50 1020.6
20260506173408 66 160 0.0 0.0 0.00 0.00 0.00 50 1020.9
20260506172900 67 160 0.0 0.0 0.00 0.00 0.00 49 1020.7
20260506172356 67 160 0.0 0.0 0.00 0.00 0.00 50 1020.7
20260506171853 69 160 0.0 0.0 0.00 0.00 0.00 45 1020.9
20260506171350 69 160 0.0 0.0 0.00 0.00 0.00 48 1020.9
20260506170848 69 160 0.0 0.0 0.00 0.00 0.00 44 1020.7
20260506170343 68 160 0.0 0.0 0.00 0.00 0.00 50 1020.5
20260506165838 67 160 0.0 0.0 0.00 0.00 0.00 51 1020.1
20260506165335 65 160 0.0 0.0 0.00 0.00 0.00 52 1019.9
20260506164831 64 160 0.0 0.0 0.00 0.00 0.00 53 1020.2
20260506164327 64 160 0.0 0.0 0.00 0.00 0.00 53 1020.3
20260506163819 64 160 0.0 0.0 0.00 0.00 0.00 51 1020.2
20260506163314 66 160 0.0 0.0 0.00 0.00 0.00 51 1020.0
20260506162810 68 160 0.0 0.0 0.00 0.00 0.00 49 1020.1
20260506162308 69 160 0.0 0.0 0.00 0.00 0.00 47 1019.9
20260506161804 68 160 0.0 0.0 0.00 0.00 0.00 49 1020.0
20260506161301 67 160 0.0 0.0 0.00 0.00 0.00 52 1020.0
20260506160754 67 160 0.0 0.0 0.00 0.00 0.00 50 1020.0
20260506160250 64 160 0.0 0.0 0.00 0.00 0.00 58 1020.1
20260506155749 62 161 0.0 0.0 0.00 0.00 0.00 51 1020.1
20260506155246 62 160 0.0 0.0 0.00 0.00 0.00 56 1020.0
20260506153358 61 161 0.0 0.0 0.00 0.00 0.00 61 1019.7
20260506152855 61 161 0.0 0.0 0.00 0.00 0.00 58 1019.7
20260506152352 60 161 0.0 0.0 0.00 0.00 0.00 64 1019.4
20260506151851 59 161 0.0 0.0 0.00 0.00 0.00 63 1019.7
20260506151347 58 161 0.0 0.0 0.00 0.00 0.00 63 1019.8
20260506150845 57 161 0.0 0.0 0.00 0.00 0.00 68 1019.9
20260506150341 57 161 0.0 0.0 0.00 0.00 0.00 72 1020.0
20260506145838 56 161 0.0 0.0 0.00 0.00 0.00 69 1019.9
20260506145334 56 161 0.0 0.0 0.00 0.00 0.00 72 1019.8
20260506144832 56 161 0.0 0.0 0.00 0.00 0.00 73 1020.1
20260506144328 55 161 0.0 0.0 0.00 0.00 0.00 78 1020.0
20260506143827 53 161 0.0 0.0 0.00 0.00 0.00 77 1019.8
20260506143323 53 161 0.0 0.0 0.00 0.00 0.00 77 1019.9
20260506142822 52 161 0.0 0.0 0.00 0.00 0.00 79 1019.8
20260506142319 52 161 0.0 0.0 0.00 0.00 0.00 82 1019.6
20260506141818 51 161 0.0 0.0 0.00 0.00 0.00 80 1019.8
20260506141315 50 161 0.0 0.0 0.00 0.00 0.00 83 1020.0
20260506140813 50 161 0.0 0.0 0.00 0.00 0.00 83 1019.9
20260506140310 50 161 0.0 0.0 0.00 0.00 0.00 85 1019.8
20260506135807 49 161 0.0 0.0 0.00 0.00 0.00 87 1019.6
20260506135305 48 161 0.0 0.0 0.00 0.00 0.00 88 1019.8
20260506134800 48 161 0.0 0.0 0.00 0.00 0.00 88 1019.6
20260506134256 48 161 0.0 0.0 0.00 0.00 0.00 89 1019.8
20260506133753 48 161 0.0 0.0 0.00 0.00 0.00 89 1019.7
20260506133250 48 161 0.0 0.0 0.00 0.00 0.00 90 1019.5
20260506132747 48 161 0.0 0.0 0.00 0.00 0.00 91 1019.4
20260506132244 47 161 0.0 0.0 0.00 0.00 0.00 93 1019.3
20260506131742 47 161 0.0 0.0 0.00 0.00 0.00 95 1019.3
20260506131238 46 161 0.0 0.0 0.00 0.00 0.00 96 1019.5
20260506130735 46 161 0.0 0.0 0.00 0.00 0.00 97 1019.5
20260506130232 46 161 0.0 0.0 0.00 0.00 0.00 97 1019.6
20260506125730 45 161 0.0 0.0 0.00 0.00 0.00 98 1019.7
20260506125227 45 161 0.0 0.0 0.00 0.00 0.00 98 1019.7
20260506124726 45 161 0.0 0.0 0.00 0.00 0.00 98 1019.6
20260506124223 45 161 0.0 0.0 0.00 0.00 0.00 99 1020.0
20260506123720 44 160 0.0 0.0 0.00 0.00 0.00 99 1020.0
20260506123219 44 160 0.0 0.0 0.00 0.00 0.00 99 1019.9
20260506122715 44 160 0.0 0.0 0.00 0.00 0.00 99 1020.0
20260506122213 44 160 0.0 0.0 0.00 0.00 0.00 99 1019.9
20260506121710 44 160 0.0 0.0 0.00 0.00 0.00 99 1019.8
20260506121207 44 160 0.0 0.0 0.00 0.00 0.00 99 1019.5
20260506120704 44 160 0.0 0.0 0.00 0.00 0.00 99 1019.3
20260506120202 44 160 0.0 0.0 0.00 0.00 0.00 99 1019.1
20260506115700 44 160 0.0 0.0 0.00 0.00 0.00 99 1019.4
20260506115158 44 160 0.0 0.0 0.00 0.00 0.00 99 1019.2
20260506114655 44 160 0.0 0.0 0.00 0.00 0.00 99 1019.1
20260506114152 44 160 0.0 0.0 0.00 0.00 0.00 99 1019.1
20260506113651 44 160 0.0 0.0 0.00 0.00 0.00 99 1019.1
20260506113148 44 160 0.0 0.0 0.00 0.00 0.00 99 1018.9
20260506112644 44 160 0.0 0.0 0.00 0.00 0.00 99 1018.6
20260506112142 44 160 0.0 0.0 0.00 0.00 0.00 99 1018.5
20260506111639 44 160 0.0 0.0 0.00 0.00 0.00 99 1018.4
20260506111137 44 160 0.0 0.0 0.00 0.00 0.00 99 1018.1
20260506110634 44 160 0.0 0.0 0.00 0.00 0.00 99 1018.1
20260506110131 44 160 0.0 0.0 0.00 0.00 0.00 99 1018.1
20260506105628 44 160 0.0 0.0 0.00 0.00 0.00 99 1017.8
20260506105125 44 160 0.0 0.0 0.00 0.00 0.00 99 1017.5
20260506104623 44 160 0.0 0.0 0.00 0.00 0.00 99 1017.4
20260506104120 44 160 0.0 0.0 0.00 0.00 0.00 99 1017.6
20260506103617 44 160 0.0 0.0 0.00 0.00 0.00 99 1017.2
20260506103114 44 160 0.0 0.0 0.00 0.00 0.00 99 1017.6
20260506102612 44 160 0.0 0.0 0.00 0.00 0.00 99 1017.2
20260506102109 44 160 0.0 0.0 0.00 0.00 0.00 99 1017.1
20260506101606 44 160 0.0 0.0 0.00 0.00 0.00 98 1017.0
20260506101103 44 160 0.0 0.0 0.00 0.00 0.00 98 1017.1
20260506100601 44 160 0.0 0.0 0.00 0.00 0.00 97 1017.0
20260506100059 44 160 0.0 0.0 0.00 0.00 0.00 98 1017.2
20260506095558 44 160 0.0 0.0 0.00 0.00 0.00 98 1017.0
20260506095054 44 160 0.0 0.0 0.00 0.00 0.00 97 1016.9
20260506094551 44 160 0.0 0.0 0.00 0.00 0.00 97 1016.8
20260506094049 44 160 0.0 0.0 0.00 0.00 0.00 97 1017.1
20260506093547 44 160 0.0 0.0 0.00 0.00 0.00 97 1017.1
20260506093044 44 160 0.0 0.0 0.00 0.00 0.00 97 1016.4
20260506092542 44 160 0.0 0.0 0.00 0.00 0.00 97 1015.9
20260506092038 44 160 0.0 0.0 0.00 0.00 0.00 96 1016.4
20260506091537 44 160 0.0 0.0 0.00 0.00 0.00 96 1016.5
20260506091034 44 160 0.0 0.0 0.00 0.00 0.00 96 1016.7
20260506090532 44 160 0.0 0.0 0.00 0.00 0.00 96 1016.8
20260506090028 44 160 0.0 0.0 0.00 0.00 0.00 96 1016.4
20260506085525 44 160 0.0 0.0 0.00 0.00 0.00 95 1015.9
20260506085021 44 160 0.0 0.0 0.00 0.00 0.00 95 1016.0
20260506084518 44 160 0.0 0.0 0.00 0.00 0.00 95 1015.8
20260506084014 44 160 0.0 0.0 0.00 0.00 0.00 95 1015.9
20260506083512 44 160 0.0 0.0 0.00 0.00 0.00 96 1015.5
20260506083009 44 160 0.0 0.0 0.00 0.00 0.00 96 1015.0
20260506082506 44 160 0.0 0.0 0.00 0.00 0.00 96 1015.2
20260506082001 44 160 0.0 0.0 0.00 0.00 0.00 96 1014.6
20260506081500 44 160 0.0 0.0 0.00 0.00 0.00 96 1014.5
20260506080957 44 160 0.0 0.0 0.00 0.00 0.00 96 1014.6
20260506080454 44 160 0.0 0.0 0.00 0.00 0.00 96 1014.7
20260506073438 44 160 0.0 0.0 0.00 0.00 0.00 96 1014.8
20260506072935 44 160 0.0 0.0 0.00 0.00 0.00 96 1015.0
20260506072432 44 160 0.0 0.0 0.00 0.00 0.00 96 1015.2
20260506071930 44 160 0.0 0.0 0.00 0.00 0.00 95 1015.5
20260506071428 44 160 0.0 0.0 0.00 0.00 0.00 95 1015.6
20260506070924 44 160 0.0 0.0 0.00 0.00 0.00 95 1015.7
20260506070421 44 160 0.0 0.0 0.00 0.00 0.00 95 1015.9
20260506062359 44 161 0.0 0.0 0.00 0.00 0.00 97 1016.2
20260506061854 44 161 0.0 0.0 0.00 0.00 0.00 97 1016.2
20260506061351 44 161 0.0 0.0 0.00 0.00 0.00 97 1016.0
20260506060849 44 161 0.0 0.0 0.00 0.00 0.00 97 1015.9
20260506060347 44 161 0.0 0.0 0.00 0.00 0.00 97 1015.8
20260506051319 44 161 0.0 0.0 0.00 0.00 0.00 95 1015.4
20260506050817 44 161 0.0 0.0 0.00 0.00 0.00 95 1015.4
20260506050314 44 161 0.0 0.0 0.00 0.00 0.00 96 1015.1
20260506044804 44 161 0.0 0.0 0.00 0.00 0.00 98 1015.6
20260506044302 44 161 0.0 0.0 0.00 0.00 0.00 98 1015.2
20260506043759 44 161 0.0 0.0 0.00 0.00 0.00 99 1015.0
20260506043256 44 161 0.0 0.0 0.00 0.00 0.00 99 1015.0
20260506042755 44 161 0.0 0.0 0.00 0.00 0.00 99 1014.7
20260506042253 45 161 0.0 0.0 0.00 0.00 0.00 99 1014.8
20260506041751 45 161 0.0 0.0 0.00 0.00 0.00 99 1014.9
20260506041248 45 161 0.0 0.0 0.00 0.00 0.00 99 1014.6
20260506040745 45 161 0.0 0.0 0.00 0.00 0.00 99 1014.6
20260506040242 45 161 0.0 0.0 0.00 0.00 0.00 99 1014.7
20260506035739 45 161 0.0 0.0 0.00 0.00 0.00 99 1014.9
20260506035235 45 161 0.0 0.0 0.00 0.00 0.00 99 1014.7
20260506034727 45 161 0.0 0.0 0.00 0.00 0.00 99 1014.7
20260506034224 45 161 0.0 0.0 0.00 0.00 0.00 99 1014.8
20260506033721 45 161 0.0 0.0 0.00 0.00 0.00 99 1014.6
20260506033218 45 161 0.0 0.0 0.00 0.00 0.00 99 1014.8
20260506032715 45 161 0.0 0.0 0.00 0.00 0.00 99 1014.8
20260506032212 45 161 0.0 0.0 0.00 0.00 0.00 99 1014.8
20260506031709 45 161 0.0 0.0 0.00 0.00 0.00 99 1014.8
20260506031206 45 161 0.0 0.0 0.00 0.00 0.00 99 1014.7
20260506030705 45 161 0.0 0.0 0.00 0.00 0.00 99 1014.5
20260506030202 45 161 0.0 0.0 0.00 0.00 0.00 98 1014.3
20260506025658 45 161 0.0 0.0 0.00 0.00 0.00 98 1014.2
20260506025154 45 161 0.0 0.0 0.00 0.00 0.00 98 1014.3
20260506024652 45 161 0.0 0.0 0.00 0.00 0.00 99 1014.2
20260506024148 45 161 0.0 0.0 0.00 0.00 0.00 99 1014.2
20260506023644 45 161 0.0 0.0 0.00 0.00 0.00 99 1014.1
20260506023142 45 161 0.0 0.0 0.00 0.00 0.00 99 1013.8
20260506022639 45 161 0.0 0.0 0.00 0.00 0.00 99 1013.9
20260506022136 45 161 0.0 0.0 0.00 0.00 0.00 99 1014.0
20260506021634 45 161 0.0 0.0 0.00 0.00 0.00 99 1013.7
20260506021130 45 161 0.0 0.0 0.00 0.00 0.00 99 1013.5
20260506020628 45 161 0.0 0.0 0.00 0.00 0.00 99 1013.3
20260506020125 45 161 0.0 0.0 0.00 0.00 0.00 99 1013.5
20260506015623 45 161 0.0 0.0 0.00 0.00 0.00 99 1013.3
20260506015120 45 161 0.0 0.0 0.00 0.00 0.00 99 1013.3
20260506014617 45 161 0.0 0.0 0.00 0.00 0.00 99 1013.1
20260506014112 45 161 0.0 0.0 0.00 0.00 0.00 99 1012.9
20260506013611 45 161 0.0 0.0 0.00 0.00 0.00 99 1013.2
20260506013107 45 161 0.0 0.0 0.00 0.00 0.00 99 1013.2
20260506012604 45 161 0.0 0.0 0.00 0.00 0.00 99 1012.8
20260506012100 45 161 0.0 0.0 0.00 0.00 0.00 99 1012.9
20260506011558 45 161 0.0 0.0 0.00 0.00 0.00 99 1012.9
20260506011048 45 161 0.0 0.0 0.00 0.00 0.00 99 1012.7
20260506010542 45 161 0.0 0.0 0.00 0.00 0.00 99 1012.7
20260506010038 45 161 0.0 0.0 0.00 0.00 0.00 99 1012.8
20260506005536 45 161 0.0 0.0 0.00 0.00 0.00 98 1012.8
20260506005031 45 161 0.0 0.0 0.00 0.00 0.00 99 1012.9
20260506004529 45 161 0.0 0.0 0.00 0.00 0.00 99 1012.8
20260506004026 45 161 0.0 0.0 0.00 0.00 0.00 98 1012.5
20260506003522 45 161 0.0 0.0 0.00 0.00 0.00 99 1012.5
20260506003018 45 161 0.0 0.0 0.00 0.00 0.00 99 1012.8
20260506002514 45 161 0.0 0.0 0.00 0.00 0.00 98 1012.3
20260506002009 45 161 0.0 0.0 0.00 0.00 0.00 98 1012.2
20260506001507 45 161 0.0 0.0 0.00 0.00 0.00 98 1012.2
20260506001004 46 161 0.0 0.0 0.00 0.00 0.00 98 1012.1
20260506000502 46 161 0.0 0.0 0.00 0.00 0.00 98 1012.1
20260505235958 46 161 0.0 0.0 0.00 0.00 0.00 99 1012.0
20260505235457 46 161 0.0 0.0 0.00 0.00 0.00 99 1012.1
20260505234953 46 161 0.0 0.0 0.00 0.00 0.00 99 1011.8
20260505234450 46 161 0.0 0.0 0.00 0.00 0.00 99 1012.1
20260505233947 46 161 0.0 0.0 0.00 0.00 0.00 98 1011.9
20260505233445 46 161 0.0 0.0 0.00 0.00 0.00 98 1011.9
20260505232942 46 161 0.0 0.0 0.00 0.00 0.00 99 1011.9
20260505232440 46 161 0.0 0.0 0.00 0.00 0.00 98 1012.0
20260505231937 46 161 0.0 0.0 0.00 0.00 0.00 98 1012.0
20260505231434 46 161 0.0 0.0 0.00 0.00 0.00 99 1011.7
20260505230932 46 161 0.0 0.0 0.00 0.00 0.00 99 1011.8
20260505230429 46 161 0.0 0.0 0.00 0.00 0.00 99 1011.3
20260505225926 46 161 0.0 0.0 0.00 0.00 0.00 98 1011.0
20260505225423 46 161 0.0 0.0 0.00 0.00 0.00 98 1011.4
20260505224918 47 161 0.0 0.0 0.00 0.00 0.00 97 1011.4
20260505224416 47 161 0.0 0.0 0.00 0.00 0.00 95 1011.7
20260505223913 47 161 0.0 0.0 0.00 0.00 0.00 93 1011.5
20260505223410 47 161 0.0 0.0 0.00 0.00 0.00 92 1011.7
20260505222906 47 161 0.0 0.0 0.00 0.00 0.00 91 1011.9
20260505222402 47 161 0.0 0.0 0.00 0.00 0.00 91 1011.6
20260505221859 47 161 0.0 0.0 0.00 0.00 0.00 92 1011.7
20260505221356 47 161 0.0 0.0 0.00 0.00 0.00 92 1011.7
20260505220853 48 161 0.0 0.0 0.00 0.00 0.00 94 1011.4
20260505220350 48 161 0.0 0.0 0.00 0.00 0.00 95 1011.2
20260505215847 48 161 0.0 0.0 0.00 0.00 0.00 96 1011.1
20260505215345 48 161 0.0 0.0 0.00 0.00 0.00 95 1011.2
20260505214843 48 161 0.0 0.0 0.00 0.00 0.00 94 1011.5
20260505214340 49 161 0.0 0.0 0.00 0.00 0.00 92 1011.3
20260505213837 49 161 0.0 0.0 0.00 0.00 0.00 92 1011.2
20260505213335 49 161 0.0 0.0 0.00 0.00 0.00 90 1011.3
20260505212831 49 161 0.0 0.0 0.00 0.00 0.00 89 1011.4
20260505212328 49 161 0.0 0.0 0.00 0.00 0.00 89 1011.7
20260505211824 49 161 0.0 0.0 0.00 0.00 0.00 89 1011.4